Location: Unspecified
(40.7945°N, 111.1337°W)
Time: 16:27:50
(UTC-06:00)

Resurs 1-4 Rocket - Visible Passes

Search period start: 25 June 2017 00:00
Search period end: 05 July 2017 00:00
Orbit: 801 x 813 km, 98.5° (Epoch: 25 June)

Date Brightness Start Highest point End Pass type
(mag) Time Alt. Az. Time Alt. Az. Time Alt. Az.
25 Jun 3.2 03:08:37 10° NNE 03:13:30 36° E 03:16:15 22° SSE visible
25 Jun 3.3 04:48:42 10° N 04:53:10 28° WNW 04:57:21 11° WSW visible
26 Jun 3.9 02:44:42 10° NE 02:48:45 22° E 02:51:23 16° SE visible
26 Jun 2.6 04:23:44 10° N 04:28:48 46° WNW 04:32:28 18° SW visible
27 Jun 4.4 02:21:40 10° ENE 02:23:55 13° E 02:26:10 10° ESE visible
27 Jun 2.1 03:59:00 10° N 04:04:19 77° WNW 04:07:34 24° SSW visible
28 Jun 2.4 03:34:28 10° NNE 03:39:46 64° ESE 03:42:41 26° S visible
28 Jun 3.9 05:15:41 10° NNW 05:19:02 17° WNW 05:22:24 10° W visible
29 Jun 3.1 03:10:11 10° NNE 03:15:07 38° E 03:17:47 23° SSE visible
29 Jun 3.3 04:50:20 10° N 04:54:45 27° WNW 04:58:52 11° WSW visible
30 Jun 3.9 02:46:14 10° NE 02:50:22 23° E 02:52:53 16° SE visible
30 Jun 2.6 04:25:21 10° N 04:30:23 44° WNW 04:33:58 18° SW visible
01 Jul 4.4 02:23:05 10° ENE 02:25:32 13° E 02:27:59 10° ESE visible
01 Jul 2.1 04:00:36 10° N 04:05:55 74° WNW 04:09:05 25° SSW visible
02 Jul 2.3 03:36:04 10° NNE 03:41:22 67° ESE 03:44:11 28° S visible
02 Jul 3.9 05:17:22 10° NNW 05:20:37 17° WNW 05:23:50 10° W visible
03 Jul 3.1 03:11:45 10° NNE 03:16:43 39° E 03:19:17 24° SSE visible
03 Jul 3.4 04:51:59 10° N 04:56:20 26° WNW 05:00:22 11° WSW visible
04 Jul 3.8 02:47:46 10° NE 02:51:59 24° E 02:54:24 17° SE visible
04 Jul 2.7 04:26:59 10° N 04:31:58 43° WNW 04:35:28 18° SW visible
